STARLINK-34445

Last updated on Thu Jul 03 2025 00:02:07 GMT+0000 (Coordinated Universal Time)

1 64457U 25130V 25183.58335648 -.00042588 00000+0 -28791-3 0 9996 2 64457 53.1563 179.7324 0000819 67.3201 72.6560 15.74193684 3514
UTC large
Height (km)
Speed (km/s)
/
Latitude / Longitude
Inclination (degrees)
Orbital Period (minutes)
Azimuth
Elevation
Range (km)
Doppler Factor

Next 0 passes for location: London (51.5072 / 0.1276)

Sorry there are no passes over London.